sat.trackr.live / text

‹ back to catalog

STARLINK-2185

NORAD 47767 · 2021-017AX

PAYLOAD ACTIVE UNKNOWN

§ Identity

Operator
Country
US
Launch date
2021-03-04
Launch site
AFETR
Launch vehicle
Mass (kg)
RCS (m²)

Purposes: comms

External: N2YO · Heavens-Above · Gunter

§ Orbital elements

Epoch: 2026-05-25T04:08:54.322944Z

Period
92.90 min
Inclination
53.1554°
Eccentricity
0.0006764
Mean motion
15.50123823 rev/d
Perigee alt
411.8 km
Apogee alt
421.0 km
Semi-major
6,794.5 km
B*
1.1770e-3
RAAN
201.9337°
Arg perigee
358.0161°
Mean anomaly
2.0821°
Rev number
28,969

§ Raw data

STARLINK-21851 47767U 21017AX  26145.17285096  .00067549  00000+0  11770-2 0  99962 47767  53.1554 201.9337 0006764 358.0161   2.0821 15.50123823289695

JSON: /api/v1/satellites/47767 · /tle

For live sub-satellite position, see the globe view (requires WebGL).

§ Visibility from observer

Set your observer location to see the next 7 days of passes ≥ 10°. The values pass through the URL so the page stays shareable.

No JS? Fill the form by hand. The geolocation button needs JavaScript.